{"data":{"norad_id":69251,"epoch":"2026-09-20T00:05:00.945024Z","epoch_age_seconds":69875,"freshness":"FRESH","line1":"1 69251U 26117P   26263.00348316  .00012847  00000+0  39068-3 0  9994","line2":"2 69251  53.1588 155.8618 0000898  82.4924 277.6180 15.34402234 17594","mean_motion":15.34402234,"eccentricity":8.98e-5,"inclination_deg":53.1588,"raan_deg":155.8618,"arg_perigee_deg":82.4924,"mean_anomaly_deg":277.618,"bstar":0.00039068,"rev_number":1759,"period_min":93.847621444482,"perigee_km":462.08229343906,"apogee_km":463.31090715367,"semimajor_km":6840.8336002964,"source":"CELESTRAK","updated_at":"2026-09-20T09:00:44.149964Z"}}